TimeEST,TemperatureF,Dew PointF,Humidity,Sea Level PressureIn,VisibilityMPH,Wind Direction,Wind SpeedMPH,Gust SpeedMPH,PrecipitationIn,Events,Conditions,WindDirDegrees,DateUTC
12:56 AM,3.9,-2.0,76,29.67,-9999.0,NW,25.3,43.7,N/A,,Unknown,320,2012-12-31 05:56:00
1:56 AM,3.9,-2.0,76,29.70,-9999.0,NW,25.3,43.7,N/A,,Unknown,320,2012-12-31 06:56:00
2:56 AM,3.9,-2.0,76,29.75,-9999.0,NW,16.1,34.5,N/A,,Unknown,310,2012-12-31 07:56:00
3:56 AM,3.9,-2.0,76,29.78,-9999.0,NW,17.3,31.1,N/A,,Unknown,310,2012-12-31 08:56:00
4:56 AM,3.9,-0.9,80,29.80,-9999.0,WNW,8.1,24.2,N/A,,Unknown,300,2012-12-31 09:56:00
5:56 AM,5.0,-0.9,76,29.82,-9999.0,NW,10.4,20.7,N/A,,Unknown,310,2012-12-31 10:56:00
6:56 AM,6.1,1.0,80,29.79,-9999.0,NW,13.8,27.6,N/A,,Unknown,310,2012-12-31 11:56:00
7:56 AM,7.0,1.0,77,29.80,-9999.0,NW,19.6,27.6,N/A,,Unknown,320,2012-12-31 12:56:00
8:56 AM,10.0,3.0,73,29.80,-9999.0,NW,17.3,31.1,N/A,,Unknown,320,2012-12-31 13:56:00
9:56 AM,12.0,3.9,70,29.79,-9999.0,NW,19.6,31.1,N/A,,Unknown,320,2012-12-31 14:56:00
10:56 AM,15.1,6.1,68,29.79,-9999.0,NW,13.8,25.3,N/A,,Unknown,320,2012-12-31 15:56:00
11:56 AM,18.0,8.1,65,29.77,-9999.0,NW,12.7,24.2,N/A,,Unknown,310,2012-12-31 16:56:00
12:56 PM,19.0,9.0,65,29.75,-9999.0,WNW,6.9,27.6,N/A,,Unknown,300,2012-12-31 17:56:00
1:56 PM,19.9,10.9,68,29.75,-9999.0,WNW,8.1,20.7,N/A,,Unknown,300,2012-12-31 18:56:00
2:56 PM,19.0,10.9,71,29.75,-9999.0,NW,10.4,23.0,N/A,,Unknown,310,2012-12-31 19:56:00
3:56 PM,18.0,12.0,78,29.75,-9999.0,NW,9.2,-,N/A,,Unknown,320,2012-12-31 20:56:00
4:56 PM,19.0,12.9,77,29.74,-9999.0,NNW,11.5,-,N/A,,Unknown,330,2012-12-31 21:56:00
5:56 PM,19.9,16.0,85,29.72,-9999.0,Variable,4.6,-,N/A,,Unknown,0,2012-12-31 22:56:00
6:56 PM,19.9,17.1,89,29.71,-9999.0,Calm,Calm,-,N/A,,Unknown,0,2012-12-31 23:56:00
7:56 PM,21.0,17.1,85,29.70,-9999.0,Calm,Calm,-,N/A,,Unknown,0,2013-01-01 00:56:00
8:56 PM,19.9,17.1,89,29.67,-9999.0,Calm,Calm,-,N/A,,Unknown,0,2013-01-01 01:56:00
9:56 PM,19.9,17.1,89,29.64,-9999.0,Calm,Calm,-,N/A,,Unknown,0,2013-01-01 02:56:00
10:56 PM,21.0,18.0,88,29.61,-9999.0,South,6.9,-,N/A,,Unknown,190,2013-01-01 03:56:00
11:56 PM,21.9,19.9,92,29.57,-9999.0,South,5.8,-,0.01,,Unknown,190,2013-01-01 04:56:00